Flag for Canada Weather past 2 weeks in Fredericton, New Brunswick, Canada

Now
70 °F

Mostly cloudy.


Feels Like: 70 °F
Forecast: 60 / 74 °F
Wind: 12 mph from South

Location: Fredericton

Current Time: Jul 1, 2015 at 9:58:17 PM

Latest Report: Jul 1, 2015 at 9:00 PM


Visibility: 9 mi

Pressure: 29.75 "Hg

Humidity: 69%

Dew point: 59 °F

Location of FrederictonLocation

Historic Weather in Fredericton — Graph

°F

Fredericton temperature yesterday

Maximum temperature yesterday: 75 °F (at 4:00 PM)
Minimum temperature yesterday: 54 °F (at 4:48 AM)
Average temperature yesterday: 64 °F

Past Weeks' High & Low Weather Summary

 TemperatureHumidityPressure
High77 °F (Jun 18, 2:59 PM)100% (Jun 16, 11:00 PM)30.19 "Hg (Jun 16, 11:00 PM)
Low39 °F (Jun 20, 6:00 AM)30% (Jun 18, 2:59 PM)29.65 "Hg (Jun 24, 2:02 AM)
Average60 °F73%29.93 "Hg
* Reported Jun 16 8:00 PM — Jul 1 8:00 PM, Fredericton, Weather by CustomWeather, © 2015

Note: Actual official high and low records may vary slightly from our data, if they occured in-between our weather recording intervals... More about our weather records

Advertising

Fredericton weather history for previous 24 hours

 ConditionsComfort  
Time TempWeatherWind HumidityBarometerVisibility
8:00 PM
Wed, Jul 1
68 °FOvercast.6 mph78%29.74 "Hg9 mi
7:00 PM70 °FMore clouds than sun.7 mph73%29.75 "Hg9 mi
6:00 PM70 °FSunny.8 mph64%29.78 "Hg9 mi
5:00 PM72 °FPassing clouds.8 mph65%29.83 "Hg9 mi
4:00 PM72 °FSunny.9 mph61%29.84 "Hg9 mi
3:00 PM73 °FSunny.7 mph57%29.85 "Hg9 mi
2:00 PM75 °FSunny.9 mph54%29.89 "Hg9 mi
1:00 PM77 °FSunny.13 mph47%29.91 "Hg9 mi
12:00 PM73 °FSunny.9 mph53%29.92 "Hg9 mi
11:00 AM73 °FSunny.7 mph61%29.93 "Hg9 mi
10:00 AM70 °FSunny.5 mph64%29.95 "Hg9 mi
9:00 AM64 °FSunny.3 mph78%29.96 "Hg9 mi
8:00 AM61 °FSunny.3 mph88%29.96 "Hg9 mi
7:00 AM57 °FSunny.No wind94%29.97 "Hg9 mi
6:00 AM55 °FClear.No wind94%29.97 "Hg9 mi
5:00 AM55 °FOvercast.3 mph100%29.96 "Hg9 mi
4:00 AM57 °FOvercast.5 mph94%29.97 "Hg9 mi
3:00 AM59 °FMostly cloudy.3 mph94%29.97 "Hg9 mi
2:00 AM59 °FMostly cloudy.No wind94%29.98 "Hg9 mi
1:00 AM61 °FPartly cloudy.6 mph88%29.98 "Hg9 mi
12:00 AM63 °FPassing clouds.7 mph83%29.97 "Hg9 mi
11:00 PM
Tue, Jun 30
63 °FPassing clouds.7 mph88%29.96 "Hg9 mi
10:00 PM64 °FSunny.7 mph83%29.95 "Hg9 mi
9:00 PM68 °FSunny.7 mph73%29.94 "Hg9 mi
Weather by CustomWeather, © 2015

See weather overviewHow to use our weather pages